Other Public Products
Issued by NWS Charleston, SC

Current Version | Previous Version | Graphics & Text | Print | Product List | Glossary On
Versions: 1 2 3 4 5 6 7 8 9 10 11 12 13 14 15 16 17 18 19 20 21 22 23 24 25 26 27 28 29 30 31 32 33 34 35 36 37 38 39 40 41 42 43 44 45 46 47 48 49 50
445 FPUS82 KCHS 221127 OPUCHS TEST...KCHS/KSAV Gateway Observations...TEST National Weather Service Charleston SC 700 AM EDT SUN OCT 22 2017 NOTE: "fair" indicates few or no clouds below 12,000 feet with no significant weather and/or obstructions to visibility. SCZ050-WAZ558-NCZ071-TXZ119-213-PAZ071-DCZ001-FLZ074-172-MI076- NYZ176-178-MAZ016-IL014-TNZ027-NJZ106-GAZ044-MD014-221200- ...Gateway Observations for Charleston International... CITY SKY/WX TMP DP RH WIND PRES REMARKS Chas Airport CLOUDY 67 66 97 NE10 30.25S Seattle CLOUDY 55 51 86 SW20G35 29.79R Charlotte MOCLDY 54 53 97 CALM 30.33R Dallas DFW CLOUDY 64 63 96 W10 30.03R Dallas Love LGT RAIN 63 61 93 E6 30.01R Philladelphia FOG 53 51 93 CALM 30.39R VSB 1/4 Wash National MOCLDY 55 51 86 N3 30.39R Baltimore MOCLDY 45 45 100 CALM 30.38R Miami CLOUDY 82 74 76 E9 30.06R Detroit MOCLDY 54 50 86 SE3 30.16F Newark PTCLDY 52 47 83 N3 30.38R Laguardia PTCLDY 60 53 77 E3 30.38R J F K PTCLDY 51 49 92 CALM 30.39R Boston Logan CLOUDY 55 48 77 CALM 30.37R Ft. Lauderdale MOCLDY 81 75 82 SE16 30.05R Chicago O`Hare MOCLDY 66 57 72 S14 29.92F Chicago Midway MOCLDY 65 56 72 S12 29.94F Houston Bush PTCLDY 73 73 100 CALM 29.98R Houston Hobby PTCLDY 74 71 91 CALM 29.97S Nashville CLOUDY 65 52 62 SE10 30.14R Atlanta PTCLDY 58 56 93 E9 30.25R $$ GAZ044-118-TXZ119-213-NCZ071-DCZ001-MDZ014-506-PAZ021-071-NJZ106- NYZ176-178-MAZ106-OHZ011-021-055-MIZ076-KYZ091-ILZ014-INZ047- MNZ060-ONZ431-221200- ...Gateway Observations for Savannah International... CITY SKY/WX TMP DP RH WIND PRES REMARKS Savannah Arpt CLOUDY 68 66 93 NE7 30.23R Atlanta PTCLDY 58 56 93 E9 30.25R Charlotte MOCLDY 54 53 97 CALM 30.33R Dallas DFW CLOUDY 64 63 96 W10 30.03R Houston Bush PTCLDY 73 73 100 CALM 29.98R Wash National MOCLDY 55 51 86 N3 30.39R Wash Dulles PTCLDY 47 46 97 NW3 30.38R Baltimore MOCLDY 45 45 100 CALM 30.38R Philadelphia FOG 53 51 93 CALM 30.39R VSB 1/4 Newark PTCLDY 52 47 83 N3 30.38R Laguardia PTCLDY 60 53 77 E3 30.38R J F K PTCLDY 51 49 92 CALM 30.39R Boston CLOUDY 55 48 77 CALM 30.37R Pittsburg PTCLDY 50 47 89 CALM 30.29S Akron PTCLDY 56 49 77 SE9 30.25F Cleveland PTCLDY 56 50 80 SE6 30.24F Cincinnati PTCLDY 55 49 80 S9 30.17S Columbus CLEAR 47 48 100 CALM 30.22S Detroit MOCLDY 54 50 86 SE3 30.16F Chicago O`Hare MOCLDY 66 57 72 S14 29.92F Minneapolis CLOUDY 49 43 80 W7 29.92R Indianapolis PTCLDY 56 50 80 SE9 30.09S Toronto Canada MOCLDY 52 48 87 E3 30.24S $$

USA.gov is the U.S. government's official web portal to all federal, state and local government web resources and services.